SRR94A LFML-EGCC

Flight info

Callsign SRR94A
Flight time 1h 41m
Altitude 34000
Route ETREK DCT RUSIT DCT BULOL DCT IDAVO DCT BAGBI DCT SIZZA DCT LAULY DCT BRY DCT CLM DCT KOPOR DCT VESAN DCT RATUK DCT SOVAT L613 SANDY UN57 WELIN T420 ELVOS
Aircraft B77L/H-SDE1E2E3FGHIJ2J3J4J5M1RWXY/LB1D1

Departure

Time 2026-05-07 07:36
Airport Marseille Provence Airport (LFML)

Arrival

Time 2026-05-07 09:18
Airport Manchester Airport (EGCC)
Time Latitude Longitude Altitude Speed Heading
2026-05-07 07:14 43.44232 5.21476 41 ft 0 kts 310°
2026-05-07 07:22 43.44244 5.21453 40 ft 4 kts 303°
2026-05-07 07:22 43.44258 5.21431 39 ft 4 kts 313°
2026-05-07 07:22 43.44277 5.21406 39 ft 4 kts 314°
2026-05-07 07:23 43.44281 5.21382 39 ft 4 kts 267°
2026-05-07 07:23 43.44274 5.21360 39 ft 0 kts 241°
2026-05-07 07:26 43.44273 5.21357 39 ft 3 kts 241°
2026-05-07 07:26 43.44244 5.21283 39 ft 14 kts 242°
2026-05-07 07:27 43.44195 5.21156 39 ft 15 kts 241°
2026-05-07 07:27 43.44130 5.21076 40 ft 12 kts 194°
2026-05-07 07:27 43.44046 5.21103 42 ft 13 kts 167°
2026-05-07 07:27 43.43964 5.21137 44 ft 13 kts 159°
2026-05-07 07:28 43.43887 5.21194 46 ft 13 kts 142°
2026-05-07 07:28 43.43816 5.21295 49 ft 17 kts 133°
2026-05-07 07:28 43.43713 5.21443 51 ft 28 kts 134°
2026-05-07 07:28 43.43577 5.21636 50 ft 28 kts 134°
2026-05-07 07:29 43.43444 5.21827 53 ft 28 kts 133°
2026-05-07 07:29 43.43308 5.22019 53 ft 28 kts 134°
2026-05-07 07:29 43.43172 5.22212 58 ft 28 kts 134°
2026-05-07 07:29 43.43051 5.22370 63 ft 19 kts 152°
2026-05-07 07:30 43.42983 5.22344 59 ft 11 kts 230°
2026-05-07 07:30 43.42956 5.22244 60 ft 11 kts 257°
2026-05-07 07:30 43.42940 5.22120 63 ft 16 kts 261°
2026-05-07 07:30 43.42919 5.21945 57 ft 22 kts 260°
2026-05-07 07:31 43.42896 5.21712 61 ft 25 kts 279°
2026-05-07 07:31 43.43008 5.21528 50 ft 25 kts 314°
2026-05-07 07:31 43.43134 5.21355 46 ft 25 kts 315°
2026-05-07 07:31 43.43258 5.21184 48 ft 25 kts 315°
2026-05-07 07:32 43.43360 5.20987 44 ft 25 kts 302°
2026-05-07 07:32 43.43471 5.20797 40 ft 25 kts 315°
2026-05-07 07:32 43.43596 5.20623 34 ft 25 kts 314°
2026-05-07 07:32 43.43721 5.20450 31 ft 25 kts 316°
2026-05-07 07:33 43.43811 5.20330 28 ft 13 kts 316°
2026-05-07 07:33 43.43879 5.20365 26 ft 13 kts 59°
2026-05-07 07:33 43.43925 5.20477 30 ft 15 kts 61°
2026-05-07 07:33 43.43986 5.20628 28 ft 19 kts 61°
2026-05-07 07:34 43.44049 5.20789 37 ft 19 kts 61°
2026-05-07 07:34 43.44137 5.20847 38 ft 16 kts 319°
2026-05-07 07:34 43.44211 5.20733 36 ft 16 kts 311°
2026-05-07 07:34 43.44190 5.20590 33 ft 16 kts 240°
2026-05-07 07:35 43.44131 5.20435 27 ft 21 kts 242°
2026-05-07 07:35 43.44067 5.20396 23 ft 0 kts 137°
2026-05-07 07:35 43.44067 5.20397 23 ft 2 kts 137°
2026-05-07 07:36 43.43875 5.20659 27 ft 82 kts 134°
2026-05-07 07:36 43.43273 5.21486 49 ft 159 kts 135°
2026-05-07 07:36 43.42374 5.22730 372 ft 195 kts 135°
2026-05-07 07:36 43.41451 5.24111 1086 ft 202 kts 122°
2026-05-07 07:37 43.41189 5.25966 1866 ft 198 kts 78°
2026-05-07 07:37 43.41806 5.27704 2424 ft 210 kts 45°
2026-05-07 07:37 43.43015 5.28860 3079 ft 216 kts 21°
2026-05-07 07:37 43.44514 5.29330 3587 ft 233 kts 359°
2026-05-07 07:38 43.46176 5.28955 4050 ft 250 kts 342°
2026-05-07 07:38 43.47844 5.28211 4842 ft 259 kts 339°
2026-05-07 07:38 43.49571 5.27396 5644 ft 265 kts 339°
2026-05-07 07:38 43.51329 5.26574 6526 ft 268 kts 339°
2026-05-07 07:39 43.53114 5.25757 7371 ft 272 kts 339°
2026-05-07 07:39 43.54936 5.24945 8194 ft 277 kts 339°
2026-05-07 07:39 43.56763 5.24133 9024 ft 281 kts 339°
2026-05-07 07:39 43.58639 5.23298 9841 ft 285 kts 339°
2026-05-07 07:40 43.60548 5.22444 10492 ft 294 kts 340°
2026-05-07 07:40 43.62579 5.21530 10728 ft 320 kts 340°
2026-05-07 07:40 43.64787 5.20535 10936 ft 345 kts 340°
2026-05-07 07:40 43.67122 5.19482 11274 ft 366 kts 340°
2026-05-07 07:41 43.69582 5.18373 11946 ft 376 kts 340°
2026-05-07 07:41 43.72103 5.17230 12804 ft 382 kts 340°
2026-05-07 07:41 43.74633 5.16044 13749 ft 386 kts 340°
2026-05-07 07:41 43.77194 5.14826 14569 ft 390 kts 340°
2026-05-07 07:42 43.79746 5.13608 15385 ft 394 kts 340°
2026-05-07 07:42 43.82356 5.12366 16231 ft 397 kts 340°
2026-05-07 07:42 43.84993 5.11114 17028 ft 402 kts 339°
2026-05-07 07:42 43.87621 5.09867 17806 ft 406 kts 340°
2026-05-07 07:43 43.90356 5.08789 18516 ft 411 kts 346°
2026-05-07 07:43 43.93199 5.08061 19182 ft 416 kts 349°
2026-05-07 07:43 43.96074 5.07474 19884 ft 419 kts 350°
2026-05-07 07:43 43.98977 5.06912 20584 ft 422 kts 349°
2026-05-07 07:44 44.01909 5.06326 21269 ft 426 kts 349°
2026-05-07 07:44 44.04815 5.05717 21928 ft 429 kts 348°
2026-05-07 07:44 44.07792 5.05065 22574 ft 433 kts 348°
2026-05-07 07:44 44.10785 5.04391 23231 ft 436 kts 348°
2026-05-07 07:45 44.13760 5.03711 23825 ft 440 kts 348°
2026-05-07 07:45 44.16801 5.03010 24345 ft 443 kts 348°
2026-05-07 07:45 44.19867 5.02301 24895 ft 446 kts 347°
2026-05-07 07:45 44.22945 5.01588 25437 ft 449 kts 347°
2026-05-07 07:46 44.26045 5.00870 25961 ft 452 kts 347°
2026-05-07 07:46 44.29126 5.00157 26459 ft 456 kts 347°
2026-05-07 07:46 44.32270 4.99428 26951 ft 459 kts 347°
2026-05-07 07:46 44.35437 4.98695 27436 ft 463 kts 347°
2026-05-07 07:47 44.38628 4.97955 27907 ft 466 kts 347°
2026-05-07 07:47 44.41847 4.97208 28407 ft 469 kts 347°
2026-05-07 07:47 44.45044 4.96465 28842 ft 472 kts 347°
2026-05-07 07:47 44.48302 4.95707 29257 ft 475 kts 346°
2026-05-07 07:48 44.51588 4.94942 29666 ft 478 kts 346°
2026-05-07 07:48 44.54876 4.94175 30103 ft 480 kts 346°
2026-05-07 07:48 44.58175 4.93407 30577 ft 478 kts 346°
2026-05-07 07:48 44.61415 4.92650 31081 ft 477 kts 346°
2026-05-07 07:49 44.64687 4.91885 31534 ft 476 kts 346°
2026-05-07 07:49 44.67963 4.91117 31962 ft 476 kts 346°
2026-05-07 07:49 44.71238 4.90349 32363 ft 475 kts 346°
2026-05-07 07:49 44.74442 4.89312 32747 ft 469 kts 337°
2026-05-07 07:50 44.77485 4.87698 33146 ft 466 kts 333°
2026-05-07 07:50 44.80461 4.85917 33592 ft 464 kts 332°
2026-05-07 07:50 44.83388 4.84132 34000 ft 463 kts 332°
2026-05-07 07:51 44.89401 4.80574 34023 ft 468 kts 333°
2026-05-07 07:51 44.95387 4.77177 34011 ft 463 kts 334°
2026-05-07 07:52 45.01370 4.73805 34021 ft 462 kts 334°
2026-05-07 07:52 45.07351 4.70417 34024 ft 461 kts 334°
2026-05-07 07:53 45.13289 4.67041 34022 ft 462 kts 334°
2026-05-07 07:53 45.19544 4.64974 34027 ft 473 kts 358°
2026-05-07 07:53 45.22788 4.65678 34008 ft 483 kts 14°
2026-05-07 07:54 45.25948 4.67346 34041 ft 484 kts 17°
2026-05-07 07:54 45.32266 4.70840 34024 ft 489 kts 17°
2026-05-07 07:55 45.38620 4.74250 34026 ft 491 kts 16°
2026-05-07 07:55 45.45060 4.77634 34026 ft 493 kts 16°
2026-05-07 07:56 45.51503 4.81016 34018 ft 493 kts 16°
2026-05-07 07:56 45.57938 4.84410 34022 ft 491 kts 17°
2026-05-07 07:57 45.64306 4.87777 34017 ft 489 kts 17°
2026-05-07 07:57 45.70697 4.91161 34020 ft 487 kts 17°
2026-05-07 07:58 45.77017 4.94504 34024 ft 486 kts 17°
2026-05-07 07:58 45.83355 4.97865 34020 ft 485 kts 17°
2026-05-07 07:59 45.89692 5.01235 34024 ft 485 kts 17°
2026-05-07 07:59 45.95999 5.04599 34021 ft 486 kts 17°
2026-05-07 08:00 46.02418 5.07526 34017 ft 478 kts
2026-05-07 08:00 46.05716 5.07580 34023 ft 472 kts 351°
2026-05-07 08:00 46.08919 5.06640 34020 ft 468 kts 338°
2026-05-07 08:01 46.14787 5.02844 34019 ft 466 kts 332°
2026-05-07 08:01 46.20716 4.98935 34030 ft 469 kts 333°
2026-05-07 08:02 46.26671 4.95137 34032 ft 471 kts 334°
2026-05-07 08:02 46.32679 4.91292 34028 ft 472 kts 334°
2026-05-07 08:03 46.38652 4.87453 34030 ft 472 kts 334°
2026-05-07 08:03 46.43663 4.84224 34026 ft 471 kts 334°
2026-05-07 08:04 46.49659 4.80352 34030 ft 470 kts 334°
2026-05-07 08:04 46.55638 4.76484 34031 ft 469 kts 334°
2026-05-07 08:05 46.61574 4.72633 34027 ft 468 kts 334°
2026-05-07 08:05 46.67526 4.68762 34031 ft 467 kts 334°
2026-05-07 08:06 46.73428 4.64913 34035 ft 466 kts 334°
2026-05-07 08:06 46.79354 4.61042 34031 ft 466 kts 334°
2026-05-07 08:07 46.85241 4.57198 34026 ft 466 kts 334°
2026-05-07 08:07 46.91207 4.53320 34035 ft 466 kts 334°
2026-05-07 08:08 46.97104 4.49478 34031 ft 467 kts 334°
2026-05-07 08:08 47.03044 4.45595 34029 ft 467 kts 334°
2026-05-07 08:09 47.08963 4.41714 34034 ft 467 kts 334°
2026-05-07 08:09 47.14919 4.37799 34033 ft 467 kts 334°
2026-05-07 08:10 47.20828 4.33905 34037 ft 467 kts 334°
2026-05-07 08:10 47.26767 4.29983 34027 ft 467 kts 334°
2026-05-07 08:11 47.32705 4.26052 34022 ft 467 kts 334°
2026-05-07 08:11 47.38607 4.22133 34040 ft 467 kts 334°
2026-05-07 08:12 47.44540 4.18185 34043 ft 467 kts 334°
2026-05-07 08:12 47.50459 4.14236 34027 ft 467 kts 334°
2026-05-07 08:13 47.56352 4.10298 34031 ft 466 kts 334°
2026-05-07 08:13 47.62262 4.06351 34031 ft 466 kts 334°
2026-05-07 08:14 47.68164 4.02402 34037 ft 466 kts 334°
2026-05-07 08:14 47.74096 3.98420 34048 ft 466 kts 334°
2026-05-07 08:15 47.80012 3.94438 34032 ft 466 kts 334°
2026-05-07 08:15 47.85886 3.90474 34035 ft 466 kts 334°
2026-05-07 08:16 47.91792 3.86479 34057 ft 466 kts 334°
2026-05-07 08:16 47.97705 3.82469 34035 ft 466 kts 334°
2026-05-07 08:17 48.03570 3.78481 34050 ft 465 kts 334°
2026-05-07 08:17 48.09466 3.74462 34043 ft 465 kts 334°
2026-05-07 08:18 48.15113 3.69792 34067 ft 464 kts 323°
2026-05-07 08:18 48.20004 3.63456 34043 ft 463 kts 313°
2026-05-07 08:19 48.24331 3.56339 34042 ft 464 kts 312°
2026-05-07 08:19 48.28668 3.49171 34045 ft 464 kts 312°
2026-05-07 08:20 48.33025 3.42058 34062 ft 465 kts 312°
2026-05-07 08:20 48.37424 3.34895 34041 ft 465 kts 314°
2026-05-07 08:21 48.42449 3.28841 34041 ft 466 kts 327°
2026-05-07 08:21 48.48224 3.24500 34069 ft 467 kts 336°
2026-05-07 08:22 48.54250 3.20770 34052 ft 468 kts 337°
2026-05-07 08:22 48.60243 3.17019 34051 ft 468 kts 336°
2026-05-07 08:23 48.66272 3.13164 34047 ft 469 kts 336°
2026-05-07 08:23 48.72294 3.09285 34052 ft 470 kts 336°
2026-05-07 08:24 48.78276 3.05426 34045 ft 470 kts 336°
2026-05-07 08:24 48.84316 3.01484 34053 ft 470 kts 334°
2026-05-07 08:25 48.90013 2.96738 34056 ft 470 kts 329°
2026-05-07 08:25 48.95683 2.91681 34062 ft 471 kts 329°
2026-05-07 08:26 49.04175 2.84153 34070 ft 471 kts 329°
2026-05-07 08:26 49.09853 2.79146 34068 ft 471 kts 329°
2026-05-07 08:27 49.15501 2.74157 34065 ft 471 kts 329°
2026-05-07 08:27 49.21190 2.69114 34061 ft 471 kts 329°
2026-05-07 08:28 49.26855 2.64079 34058 ft 471 kts 329°
2026-05-07 08:28 49.32494 2.59053 34061 ft 471 kts 329°
2026-05-07 08:29 49.38167 2.53982 34055 ft 471 kts 328°
2026-05-07 08:29 49.43797 2.48937 34058 ft 471 kts 328°
2026-05-07 08:30 49.49488 2.43885 34066 ft 471 kts 331°
2026-05-07 08:30 49.55541 2.40062 34067 ft 473 kts 342°
2026-05-07 08:31 49.61878 2.37238 34067 ft 473 kts 343°
2026-05-07 08:31 49.68187 2.34459 34060 ft 474 kts 342°
2026-05-07 08:32 49.74544 2.31594 34054 ft 474 kts 342°
2026-05-07 08:32 49.80843 2.28717 34056 ft 474 kts 342°
2026-05-07 08:33 49.87188 2.25805 34058 ft 474 kts 342°
2026-05-07 08:33 49.93493 2.22906 34051 ft 475 kts 342°
2026-05-07 08:34 49.99837 2.19983 34058 ft 475 kts 342°
2026-05-07 08:34 50.06194 2.17046 34049 ft 475 kts 342°
2026-05-07 08:35 50.12499 2.14125 34056 ft 475 kts 342°
2026-05-07 08:35 50.18846 2.11176 34051 ft 476 kts 342°
2026-05-07 08:36 50.25203 2.08214 34053 ft 476 kts 342°
2026-05-07 08:36 50.31546 2.05251 34053 ft 476 kts 342°
2026-05-07 08:37 50.37577 2.01227 34062 ft 473 kts 328°
2026-05-07 08:37 50.42878 1.95136 34066 ft 471 kts 317°
2026-05-07 08:38 50.47759 1.88337 34069 ft 471 kts 317°
2026-05-07 08:38 50.52674 1.81510 34073 ft 471 kts 317°
2026-05-07 08:39 50.57627 1.74706 34075 ft 472 kts 317°
2026-05-07 08:39 50.62549 1.67948 34067 ft 472 kts 317°
2026-05-07 08:40 50.67498 1.61124 34075 ft 472 kts 317°
2026-05-07 08:40 50.72420 1.54310 34069 ft 473 kts 317°
2026-05-07 08:41 50.77364 1.47450 34064 ft 472 kts 317°
2026-05-07 08:41 50.82309 1.40575 34060 ft 472 kts 317°
2026-05-07 08:42 50.87211 1.33745 34065 ft 471 kts 317°
2026-05-07 08:42 50.92133 1.26865 34072 ft 471 kts 317°
2026-05-07 08:43 50.97051 1.19969 34076 ft 471 kts 317°
2026-05-07 08:43 51.01959 1.13067 34074 ft 471 kts 317°
2026-05-07 08:44 51.06828 1.06197 34079 ft 471 kts 316°
2026-05-07 08:44 51.11588 0.98990 34074 ft 471 kts 314°
2026-05-07 08:45 51.16257 0.91615 34080 ft 472 kts 314°
2026-05-07 08:45 51.20903 0.84307 34081 ft 472 kts 315°
2026-05-07 08:46 51.25611 0.76941 33998 ft 473 kts 315°
2026-05-07 08:46 51.30297 0.69609 33991 ft 474 kts 315°
2026-05-07 08:47 51.35011 0.62209 33980 ft 475 kts 315°
2026-05-07 08:47 51.39719 0.54790 34079 ft 475 kts 315°
2026-05-07 08:48 51.44432 0.47340 34077 ft 476 kts 315°
2026-05-07 08:48 51.49121 0.39906 34077 ft 476 kts 315°
2026-05-07 08:49 51.53837 0.32408 34075 ft 477 kts 315°
2026-05-07 08:49 51.58562 0.24868 34072 ft 478 kts 315°
2026-05-07 08:50 51.63262 0.17350 34062 ft 478 kts 315°
2026-05-07 08:50 51.67972 0.09730 34081 ft 479 kts 315°
2026-05-07 08:51 51.72615 0.02082 34076 ft 480 kts 315°
2026-05-07 08:51 51.77292 -0.05650 34076 ft 481 kts 315°
2026-05-07 08:52 51.81185 -0.12092 34078 ft 481 kts 315°
2026-05-07 08:52 51.86626 -0.21114 34071 ft 482 kts 315°
2026-05-07 08:53 51.91302 -0.28892 34070 ft 482 kts 315°
2026-05-07 08:53 51.95190 -0.35381 34073 ft 483 kts 315°
2026-05-07 08:54 52.00638 -0.44500 34077 ft 483 kts 315°
2026-05-07 08:54 52.04533 -0.51042 34073 ft 484 kts 315°
2026-05-07 08:55 52.09244 -0.58976 33175 ft 497 kts 315°
2026-05-07 08:55 52.11650 -0.63039 32381 ft 496 kts 315°
2026-05-07 08:55 52.14014 -0.67039 31649 ft 492 kts 315°
2026-05-07 08:56 52.16373 -0.71039 31108 ft 485 kts 315°
2026-05-07 08:56 52.18700 -0.74986 30522 ft 480 kts 315°
2026-05-07 08:56 52.20997 -0.78889 29967 ft 475 kts 315°
2026-05-07 08:56 52.23319 -0.82702 29335 ft 469 kts 319°
2026-05-07 08:57 52.25768 -0.86073 28783 ft 463 kts 323°
2026-05-07 08:57 52.28406 -0.89046 28241 ft 456 kts 329°
2026-05-07 08:57 52.31114 -0.91706 27719 ft 450 kts 330°
2026-05-07 08:57 52.33802 -0.94313 27197 ft 446 kts 330°
2026-05-07 08:58 52.36425 -0.96870 26682 ft 442 kts 330°
2026-05-07 08:58 52.39050 -0.99458 26168 ft 438 kts 329°
2026-05-07 08:58 52.41642 -1.02036 25649 ft 434 kts 329°
2026-05-07 08:58 52.44222 -1.04614 25150 ft 431 kts 329°
2026-05-07 08:59 52.46780 -1.07173 24642 ft 428 kts 329°
2026-05-07 08:59 52.49317 -1.09716 24150 ft 425 kts 329°
2026-05-07 08:59 52.51831 -1.12258 23661 ft 423 kts 328°
2026-05-07 08:59 52.54295 -1.14761 23094 ft 421 kts 328°
2026-05-07 09:00 52.56776 -1.17283 22579 ft 417 kts 328°
2026-05-07 09:00 52.59236 -1.19775 22086 ft 413 kts 328°
2026-05-07 09:00 52.61674 -1.22242 21606 ft 410 kts 328°
2026-05-07 09:00 52.64096 -1.24697 21120 ft 406 kts 328°
2026-05-07 09:01 52.66493 -1.27128 20660 ft 403 kts 328°
2026-05-07 09:01 52.68876 -1.29551 20192 ft 400 kts 327°
2026-05-07 09:01 52.71239 -1.31955 19740 ft 398 kts 327°
2026-05-07 09:01 52.73602 -1.34358 19324 ft 397 kts 327°
2026-05-07 09:02 52.75959 -1.36757 18870 ft 397 kts 327°
2026-05-07 09:02 52.78275 -1.39117 18417 ft 395 kts 327°
2026-05-07 09:02 52.80613 -1.41504 17892 ft 392 kts 327°
2026-05-07 09:02 52.82926 -1.43867 17401 ft 388 kts 327°
2026-05-07 09:03 52.85215 -1.46210 16924 ft 384 kts 327°
2026-05-07 09:03 52.87479 -1.48530 16485 ft 379 kts 327°
2026-05-07 09:03 52.89789 -1.50476 16039 ft 377 kts 338°
2026-05-07 09:03 52.92312 -1.51693 15613 ft 377 kts 346°
2026-05-07 09:04 52.94873 -1.52599 15193 ft 377 kts 347°
2026-05-07 09:04 52.97448 -1.53437 14806 ft 375 kts 348°
2026-05-07 09:04 53.00008 -1.54256 14419 ft 370 kts 348°
2026-05-07 09:04 53.02530 -1.55057 14082 ft 366 kts 348°
2026-05-07 09:05 53.05007 -1.55839 13813 ft 365 kts 348°
2026-05-07 09:05 53.07513 -1.56628 13561 ft 366 kts 348°
2026-05-07 09:05 53.10021 -1.57418 13165 ft 366 kts 348°
2026-05-07 09:05 53.12497 -1.58199 12777 ft 366 kts 348°
2026-05-07 09:06 53.14999 -1.58988 12429 ft 365 kts 348°
2026-05-07 09:06 53.17499 -1.59777 12112 ft 363 kts 348°
2026-05-07 09:06 53.19978 -1.60560 11809 ft 361 kts 348°
2026-05-07 09:06 53.22451 -1.61341 11479 ft 360 kts 348°
2026-05-07 09:07 53.24873 -1.62107 11067 ft 346 kts 348°
2026-05-07 09:07 53.27150 -1.62823 10673 ft 328 kts 348°
2026-05-07 09:07 53.29348 -1.63513 10280 ft 313 kts 348°
2026-05-07 09:07 53.31442 -1.64172 9878 ft 299 kts 348°
2026-05-07 09:08 53.33443 -1.64804 9465 ft 287 kts 347°
2026-05-07 09:08 53.35381 -1.65416 9039 ft 280 kts 347°
2026-05-07 09:08 53.37260 -1.66012 8655 ft 278 kts 347°
2026-05-07 09:08 53.39206 -1.66631 8284 ft 283 kts 347°
2026-05-07 09:09 53.41124 -1.67243 7915 ft 285 kts 347°
2026-05-07 09:09 53.43069 -1.67864 7539 ft 283 kts 347°
2026-05-07 09:09 53.45004 -1.68480 7149 ft 281 kts 347°
2026-05-07 09:09 53.46902 -1.69129 6761 ft 274 kts 340°
2026-05-07 09:10 53.48505 -1.70633 6348 ft 264 kts 314°
2026-05-07 09:10 53.49725 -1.72897 5992 ft 258 kts 307°
2026-05-07 09:10 53.50818 -1.75276 5573 ft 252 kts 297°
2026-05-07 09:10 53.51352 -1.78016 5162 ft 244 kts 275°
2026-05-07 09:11 53.51536 -1.80806 4823 ft 241 kts 274°
2026-05-07 09:11 53.51720 -1.83569 4553 ft 234 kts 274°
2026-05-07 09:11 53.51899 -1.86266 4282 ft 229 kts 274°
2026-05-07 09:11 53.52072 -1.88904 3995 ft 224 kts 274°
2026-05-07 09:12 53.52093 -1.91412 3683 ft 211 kts 252°
2026-05-07 09:12 53.51445 -1.93497 3599 ft 204 kts 234°
2026-05-07 09:12 53.50643 -1.95515 3563 ft 208 kts 233°
2026-05-07 09:12 53.49797 -1.97454 3504 ft 200 kts 230°
2026-05-07 09:13 53.48953 -1.99258 3494 ft 194 kts 230°
2026-05-07 09:13 53.48102 -2.01040 3497 ft 194 kts 229°
2026-05-07 09:13 53.47276 -2.02767 3513 ft 184 kts 229°
2026-05-07 09:13 53.46496 -2.04392 3490 ft 177 kts 229°
2026-05-07 09:14 53.45742 -2.05963 3347 ft 170 kts 229°
2026-05-07 09:14 53.45019 -2.07469 3130 ft 161 kts 229°
2026-05-07 09:14 53.44312 -2.08940 2906 ft 162 kts 228°
2026-05-07 09:14 53.43620 -2.10376 2730 ft 154 kts 229°
2026-05-07 09:15 53.42974 -2.11727 2519 ft 146 kts 227°
2026-05-07 09:15 53.42333 -2.13057 2295 ft 146 kts 227°
2026-05-07 09:15 53.41700 -2.14372 2130 ft 145 kts 227°
2026-05-07 09:15 53.41065 -2.15696 1878 ft 147 kts 227°
2026-05-07 09:16 53.40426 -2.17017 1681 ft 145 kts 227°
2026-05-07 09:16 53.39794 -2.18334 1502 ft 145 kts 227°
2026-05-07 09:16 53.39153 -2.19662 1279 ft 147 kts 227°
2026-05-07 09:16 53.38509 -2.20992 1070 ft 146 kts 227°
2026-05-07 09:17 53.37854 -2.22281 850 ft 148 kts 227°
2026-05-07 09:17 53.37203 -2.23642 676 ft 151 kts 232°
2026-05-07 09:17 53.36568 -2.25037 399 ft 148 kts 229°
2026-05-07 09:17 53.35928 -2.26359 262 ft 141 kts 229°
2026-05-07 09:18 53.35396 -2.27442 245 ft 94 kts 232°
2026-05-07 09:18 53.35112 -2.28041 240 ft 37 kts 231°
2026-05-07 09:18 53.34979 -2.28388 236 ft 26 kts 250°
2026-05-07 09:18 53.34950 -2.28579 234 ft 14 kts 259°
2026-05-07 09:19 53.34953 -2.28720 231 ft 11 kts 298°
2026-05-07 09:19 53.35019 -2.28734 231 ft 11 kts 40°
2026-05-07 09:19 53.35070 -2.28635 232 ft 11 kts 50°
2026-05-07 09:19 53.35118 -2.28536 235 ft 11 kts 51°
2026-05-07 09:20 53.35166 -2.28435 238 ft 11 kts 51°
2026-05-07 09:20 53.35215 -2.28334 238 ft 11 kts 51°
2026-05-07 09:20 53.35270 -2.28244 241 ft 11 kts 33°
2026-05-07 09:20 53.35338 -2.28184 237 ft 11 kts 23°
2026-05-07 09:21 53.35406 -2.28159 238 ft 9 kts
2026-05-07 09:21 53.35421 -2.28156 238 ft 0 kts
2026-05-07 09:21 53.35430 -2.28154 239 ft 5 kts
2026-05-07 09:22 53.35484 -2.28130 239 ft 9 kts 22°
2026-05-07 09:22 53.35538 -2.28073 240 ft 9 kts 40°
2026-05-07 09:22 53.35579 -2.27994 241 ft 9 kts 50°
2026-05-07 09:22 53.35598 -2.27957 242 ft 0 kts 50°
2026-05-07 09:23 53.35604 -2.27944 242 ft 5 kts 50°
2026-05-07 09:24 53.35633 -2.27901 242 ft 6 kts 27°
2026-05-07 09:24 53.35672 -2.27888 243 ft 6 kts
2026-05-07 09:24 53.35721 -2.27878 243 ft 8 kts
2026-05-07 09:24 53.35785 -2.27867 244 ft 10 kts
2026-05-07 09:25 53.35860 -2.27856 244 ft 11 kts
2026-05-07 09:25 53.35914 -2.27860 245 ft 7 kts 327°
2026-05-07 09:25 53.35927 -2.27942 244 ft 8 kts 278°
2026-05-07 09:25 53.35931 -2.28005 244 ft 0 kts 275°